User: anonymous   Login
Location: Theydon Bois
(51.6750°N, 0.1050°E)
Time: 05:17:59
(UTC+00:00)
Language:

Cosmos 1328 - Orbit

View from above orbital plane
View from above orbital plane
View from above satellite
View from above satellite

Ground track
Ground track

The orbit data is extracted from the following two-line orbital elements,

1 12987U 81117A   17349.57888265 +.00000062 +00000-0 +20957-5 0  9994
2 12987 082.5194 064.1057 0009970 002.4285 357.6989 15.07554213959549
Epoch (UTC): 15 December 2017 13:53:35
Eccentricity: 0.0009970
inclination: 82.5194°
perigee height: 537 km
apogee height: 550 km
right ascension of ascending node: 64.1057°
argument of perigee: 2.4285°
revolutions per day: 15.07554213
mean anomaly at epoch: 357.6989°
orbit number at epoch: 95954

The dashed part of the orbit path shows where the satellite is in the earth's shadow,  

DLR